Meath Environmental Platform

Observations for Trim Patrick St

Time AQI Temp °C Hum % Pres Pa CO μg/m³ H₂S μg/m³ NO μg/m³ NO₂ μg/m³ O₃ μg/m³ SO₂ μg/m³ PM1 μg/m³ PM2.5 μg/m³ PM10 μg/m³
Thursday 6 August 2026
05:18 2 11.9 79 38,460 0.32 2.64 3.83 17.37 48 0 2.86 6.72 7.39
05:13 2 11.9 76 38,460 0.31 1.58 3.89 13.6 31.62 0 2.86 5.47 6.02
05:12 2 11.9 77 38,460 0.31 1.94 3.85 15.55 44.77 0 3.71 6.81 7.49
05:11 2 11.9 78 38,460 0.32 1.45 3.85 12.39 31.55 0 2.86 6.04 6.64
05:10 2 11.9 78 38,460 0.31 2.04 3.82 14.87 45.01 0 2.86 6.04 6.65
05:09 2 11.9 78 38,460 0.32 2.17 3.84 13.61 34.1 0 2.86 6.06 6.66
05:08 2 11.9 78 38,460 0.33 1.55 3.71 15.48 44.07 0 2.86 6.04 6.65
05:07 2 11.9 78 38,460 0.34 0.73 3.8 12.12 35.34 0 2.86 6.09 6.7
05:06 2 11.9 78 38,460 0.32 1.37 3.73 12.65 29.84 0 2.86 6.77 7.45
05:05 2 12 78 38,460 0.29 1.01 3.79 15.34 43.63 0 2 6.77 7.44
05:03 2 12 78 38,460 0.29 1.01 3.86 12.52 36.99 0 3.71 6.79 7.47
05:02 2 12 78 38,460 0.3 0.37 3.88 11.91 30.37 0 2 5.36 5.9
05:01 2 12 78 38,460 0.3 0.94 3.84 15.09 43.06 0 2.86 5.38 5.92
05:00 2 12 77 38,460 0.31 0 3.79 10.38 29.61 0 2.86 5.44 5.98
04:59 2 12 77 38,460 0.3 0 3.79 11.91 30.57 0 2 6.12 6.74
04:58 2 12 77 38,460 0.29 0 3.83 11 29.94 0 2.86 6.1 6.71
04:55 2 12.1 77 38,460 0.3 0.16 3.77 11.78 28.34 0 2.86 6.11 6.72
04:54 2 12.1 76 38,460 0.29 1.48 3.71 12.78 35.88 0 2 6.2 6.82
04:52 2 12.1 76 38,460 0.3 0.11 3.68 13.99 32.42 0 2.86 6.87 7.56
04:51 2 12.2 77 38,460 0.29 0.6 3.68 11.61 28.8 0 2 5.41 5.95